Location: Caltech
(34.1382°N, 118.1253°W)
Time: 14:57:43
(UTC-07:00)

Transit 2A - Visible Passes

Search period start: 18 October 2017 00:00
Search period end: 28 October 2017 00:00
Orbit: 592 x 967 km, 66.7° (Epoch: 17 October)

Date Brightness Start Highest point End Pass type
(mag) Time Alt. Az. Time Alt. Az. Time Alt. Az.
18 Oct 7.4 04:16:12 35° NE 04:16:12 35° NE 04:19:36 10° NNE visible
18 Oct 7.6 05:56:45 17° WNW 05:57:48 18° NW 06:01:36 10° N visible
19 Oct 8.5 03:43:45 18° NE 03:43:45 18° NE 03:45:20 10° NE visible
19 Oct 7.4 05:24:17 24° NW 05:24:17 24° NW 05:28:10 10° N visible
20 Oct 7.7 04:51:43 24° N 04:51:43 24° N 04:54:30 10° N visible
21 Oct 8.2 04:19:04 19° N 04:19:04 19° N 04:20:41 10° NNE visible
22 Oct 8.8 03:46:21 12° NNE 03:46:21 12° NNE 03:46:45 10° NNE visible
22 Oct 8.4 05:26:52 11° NNW 05:26:52 11° NNW 05:27:16 10° NNW visible
23 Oct 8.5 04:54:05 11° NNW 04:54:05 11° NNW 04:54:28 10° N visible
